Location: B�rgermoos
(47.6500°N, 9.0667°E)
Time: 15:48:24
(UTC+00:00)

CZ-4C R/B - Pass Details

Date: 18 September 2020
Orbit: 626 x 1375 km, 63.4° (Epoch: 23 October)

Event Time Altitude Azimuth Distance (km) Brightness Sun altitude
Exits shadow 23:01:59 21° 30° (NNE) 1,935 4.4 -40.8°
Drops below altitude 10° 23:04:05 10° 36° (NE) 2,693 5.2 -40.9°
Sets 23:07:00 0° 41° (NE) 3,771 6.1 -40.9°
